[[{"header":{"parameterUnit":"m.s-1","parameterCategory":1,"la1":30.2991,"la2":30.254,"lo1":-89.0895,"lo2":-89.0444,"dy":0.0017,"dx":0.0017,"nx":28,"ny":28,"refTime":"2024-08-18T09:00:00:Z","depth":0,"parameterNumber":2,"parameterNumberName":"U-component_of_WINDS"},"data":[0,0,0,0,0,0,0,0,0,0,0,0,0,0,0,0,0,0,0,0,0,0,0,0,0,0,0,0,0,0,0,0,0,0,0,0,0,0,0,0,0,0,0,0,0,0,0,0,0,0,0,0,0,0,0,0,0,0,2.6321,2.6322,0,2.6429,2.643,2.6431,2.6392,2.6389,2.6387,2.6385,2.6495,2.65,2.6505,0,0,0,0,0,0,0,0,0,0,0,0,0,2.6083,2.6087,2.6321,2.6322,2.6324,2.6428,2.643,2.6431,2.6392,2.6389,2.6386,2.6384,2.6494,2.65,2.6506,0,0,0,0,0,0,0,0,0,0,0,0,0,2.6188,2.6089,2.6321,2.6317,2.6318,2.6428,2.643,2.6432,2.6393,2.6389,2.6386,2.6382,2.6491,2.6499,2.6507,2.6628,0,0,2.6531,2.6534,0,0,0,0,0,0,0,0,2.6182,2.6197,2.6316,2.6317,2.6318,2.6393,2.6386,2.6497,2.6394,2.6364,2.6385,2.638,2.6464,2.6474,2.6502,2.6633,2.6638,2.6531,2.6536,2.6539,2.6542,0,0,0,0,0,0,0,2.6175,2.6192,2.6364,2.6318,2.6319,2.631,2.6321,2.6407,2.6433,2.6367,2.6364,2.6377,2.6464,2.6495,2.6504,2.6639,2.6531,2.6538,2.6543,2.6546,2.6874,2.6878,0,0,0,0,0,0,2.6167,2.6186,2.636,2.6367,2.624,2.6317,2.6329,2.6373,2.6432,2.6438,2.638,2.6375,2.6483,2.6495,2.6508,2.6653,2.6539,2.6547,2.6551,2.687,2.6875,2.688,0,0,0,0,0,0,2.6162,2.6183,2.6356,2.6276,2.6297,2.6325,2.6374,2.6377,2.6407,2.6443,2.6447,2.6407,2.6481,2.6497,2.6598,2.6657,2.655,2.6557,2.6866,2.6872,2.6877,2.6945,0,0,0,0,0,0,2.6155,2.6181,2.6227,2.6277,2.6301,2.6444,2.6378,2.6381,2.6421,2.6415,2.6469,2.6474,2.6479,2.6587,2.6606,2.6665,2.6563,2.686,2.6868,2.6876,2.6937,2.6952,2.6965,0,0,0,0,0,2.6147,2.6242,2.623,2.6251,2.636,2.6447,2.6461,2.6465,2.6426,2.6472,2.6495,2.6472,2.6647,2.6597,2.6619,2.6681,2.6857,2.6866,2.6875,2.6931,2.6949,2.6965,0,0,0,0,0,0,2.6199,2.6249,2.6235,2.635,2.6395,2.6441,2.6499,2.6485,2.6542,2.6534,2.6537,2.6549,2.6653,2.6677,2.6621,2.6802,2.6746,2.676,2.6782,2.6799,2.6813,2.6804,2.657,0,0,0,0,0,2.6223,2.629,2.633,2.6427,2.645,2.6471,2.651,2.6509,2.6556,2.6574,2.6604,2.6651,2.6716,2.6759,2.6821,2.6941,2.6952,2.6995,2.7009,2.702,2.7031,2.7096,2.7116,2.691,2.6909,2.6909,0,0,2.6275,2.631,2.6353,2.6439,2.6473,2.6543,2.6487,2.6563,2.6615,2.6586,2.6683,2.6707,2.6759,2.6869,2.692,2.6893,2.7091,2.7031,2.704,2.7046,2.7108,2.7127,2.7144,2.6916,2.6915,2.6914,0,0,2.6404,2.6438,2.6522,2.6558,2.6611,2.6625,2.6645,2.6694,2.6708,2.6806,2.6786,2.6847,2.696,2.6997,2.7031,2.7176,2.7157,2.7196,2.7268,2.7331,2.7347,2.7362,2.7413,2.7431,2.7208,2.7208,2.7208,0,2.6462,2.6565,2.6568,2.6645,2.6683,2.6661,2.6746,2.6781,2.6852,2.6879,2.6848,2.6989,2.7022,2.7141,2.7177,2.7205,2.7228,2.7189,2.7345,2.7359,2.7373,2.7421,2.7441,2.7212,2.7212,2.7211,2.7211,0,2.6633,2.6705,2.6767,2.6835,2.6881,2.6962,2.6977,2.7023,2.7018,2.7035,2.7134,2.7174,2.7243,2.7272,2.7268,2.7391,2.7372,2.7344,2.7288,2.7397,2.7442,2.7461,2.7218,2.7217,2.7216,2.7215,0,0,2.6797,2.6866,2.6889,2.692,2.6977,2.7033,2.7113,2.7181,2.722,2.727,2.7337,2.7433,2.7407,2.7445,2.7446,2.7502,2.7613,2.7466,2.7467,2.7491,2.775,2.777,2.7792,2.7601,2.7605,2.7607,2.7745,0,2.693,2.7071,2.7075,2.7204,2.727,2.725,2.732,2.7362,2.738,2.744,2.7459,2.7527,2.7487,2.7511,2.7565,2.7588,2.7665,2.7578,2.7663,2.7666,2.765,2.7816,2.7838,2.7966,2.7763,2.7766,2.7768,0,2.7105,2.716,2.7294,2.7342,2.737,2.7433,2.7495,2.7552,2.76,2.7609,2.7653,2.7645,2.7728,2.767,2.7783,2.7724,2.7759,2.7776,2.7781,2.7788,2.7723,2.7827,2.8007,2.8025,2.7796,2.7794,2.7792,0,2.721,2.7318,2.7412,2.744,2.7498,2.7542,2.7568,2.7613,2.7653,2.7708,2.7735,2.7799,2.7834,2.7883,2.7894,2.7851,2.8007,2.795,2.8016,2.8016,2.8049,2.8047,2.8236,2.8074,2.8073,2.8073,2.8073,0,2.7358,2.7441,2.746,2.7518,2.7611,2.7616,2.7707,2.7731,2.7771,2.7833,2.782,2.7878,2.7888,2.795,2.7958,2.805,2.8066,2.8076,2.8077,2.8077,2.8075,2.8099,2.809,2.8078,2.8077,2.8076,2.8075,0,2.7491,2.7507,2.7609,2.7655,2.7669,2.7735,2.7775,2.7831,2.7847,2.7926,2.7945,2.7971,2.8043,2.8058,2.8143,2.8148,2.8257,2.825,2.8241,2.824,2.8305,2.8299,2.8516,2.8545,2.8364,2.8366,2.8367,0,2.7584,2.7647,2.7701,2.7741,2.7769,2.7835,2.7876,2.7884,2.7927,2.7987,2.8036,2.8105,2.8161,2.8276,2.8303,2.8368,2.8362,2.8433,2.8371,2.8369,2.8362,2.8357,2.8364,2.8445,2.8447,2.8448,2.845,0,2.7747,2.7752,2.7811,2.7874,2.7924,2.7974,2.8021,2.8055,2.8069,2.8119,2.8191,2.8235,2.8321,2.8391,2.8456,2.8483,2.8469,2.8469,2.8488,2.8488,2.8479,2.8484,2.8272,2.8464,2.8463,2.8461,2.8461,2.846,2.7862,2.7917,2.7963,2.803,2.8067,2.8111,2.8166,2.8189,2.825,2.832,2.8321,2.84,2.8447,2.8533,2.8564,2.8626,2.8604,2.8631,2.8638,2.8644,2.865,2.847,2.8638,2.8638,2.8637,2.8637,2.8637,0,2.8024,2.8052,2.8114,2.818,2.8233,2.8215,2.8267,2.8312,2.8382,2.8427,2.8482,2.8566,2.8633,2.8665,2.8731,2.8775,2.877,2.8792,2.8789,2.8795,2.8666,2.8643,2.8795,2.8795,2.8795,2.8795,2.8795,2.8795,2.8114,2.8206,2.8216,2.8327,2.8355,2.8432,2.8463,2.8504,2.854,2.8633,2.8689,2.8709,2.8749,2.8818,2.8879,2.8887,2.8912,2.8937,2.8941,2.882,2.8804,2.8789,2.8767,2.8942,2.8942,2.9065,2.9066,2.9067]},{"header":{"parameterUnit":"m.s-1","parameterCategory":1,"la1":30.2991,"la2":30.254,"lo1":-89.0895,"lo2":-89.0444,"dy":0.0017,"dx":0.0017,"nx":28,"ny":28,"refTime":"2024-08-18T09:00:00:Z","depth":0,"parameterNumber":3,"parameterNumberName":"V-component_of_WINDS"},"data":[0,0,0,0,0,0,0,0,0,0,0,0,0,0,0,0,0,0,0,0,0,0,0,0,0,0,0,0,0,0,0,0,0,0,0,0,0,0,0,0,0,0,0,0,0,0,0,0,0,0,0,0,0,0,0,0,0,0,0.5575,0.5576,0,0.5667,0.5668,0.5669,0.5664,0.5663,0.5661,0.566,0.5757,0.5761,0.5764,0,0,0,0,0,0,0,0,0,0,0,0,0,0.5397,0.54,0.5575,0.5576,0.5577,0.5667,0.5668,0.567,0.5664,0.5663,0.5661,0.5659,0.5756,0.576,0.5765,0,0,0,0,0,0,0,0,0,0,0,0,0,0.548,0.5401,0.5575,0.5586,0.5587,0.5667,0.5668,0.567,0.5665,0.5663,0.5661,0.5659,0.5754,0.576,0.5765,0.5841,0,0,0.5783,0.5785,0,0,0,0,0,0,0,0,0.5475,0.5487,0.5583,0.5585,0.5587,0.5652,0.5641,0.5727,0.5665,0.5635,0.566,0.5658,0.5724,0.5732,0.5754,0.5846,0.585,0.5783,0.5787,0.5789,0.5791,0,0,0,0,0,0,0,0.547,0.5483,0.5612,0.5584,0.5587,0.5586,0.5596,0.5657,0.569,0.5638,0.5638,0.5648,0.5725,0.5748,0.5756,0.5851,0.5783,0.5788,0.5792,0.5794,0.601,0.6012,0,0,0,0,0,0,0.5461,0.5478,0.5609,0.5614,0.5525,0.5591,0.5602,0.5633,0.5689,0.5696,0.565,0.5648,0.5739,0.5749,0.5759,0.5852,0.5789,0.5795,0.5798,0.6008,0.6011,0.6013,0,0,0,0,0,0,0.5457,0.5473,0.5605,0.5546,0.5563,0.5596,0.5632,0.5636,0.566,0.5698,0.5704,0.5668,0.5738,0.5751,0.5821,0.5855,0.5797,0.5803,0.6005,0.6009,0.6012,0.6038,0,0,0,0,0,0,0.5452,0.5472,0.55,0.5547,0.5566,0.5664,0.5634,0.5639,0.5669,0.5667,0.5717,0.5723,0.5738,0.5812,0.5826,0.5862,0.5807,0.6002,0.6007,0.6011,0.6034,0.6042,0.6048,0,0,0,0,0,0.5446,0.5505,0.5502,0.5518,0.5603,0.5666,0.5678,0.5692,0.5672,0.5702,0.5726,0.5722,0.5849,0.5819,0.5835,0.5873,0.6,0.6005,0.601,0.6031,0.604,0.6048,0,0,0,0,0,0,0.5462,0.5511,0.5508,0.5584,0.5621,0.5665,0.5703,0.5702,0.5746,0.5742,0.5759,0.5771,0.584,0.5864,0.583,0.595,0.5922,0.5931,0.5932,0.5941,0.5948,0.5942,0.5812,0,0,0,0,0,0.5474,0.5521,0.5562,0.5624,0.5643,0.567,0.5698,0.5706,0.5746,0.5762,0.5791,0.5831,0.588,0.5911,0.5959,0.6037,0.6048,0.6071,0.6078,0.6084,0.6091,0.6135,0.6146,0.603,0.603,0.603,0,0,0.5501,0.5533,0.5562,0.5628,0.5658,0.5707,0.5683,0.5736,0.5773,0.577,0.5837,0.586,0.5905,0.598,0.6014,0.6001,0.6125,0.609,0.6094,0.6099,0.6141,0.6152,0.6162,0.6033,0.6033,0.6032,0,0,0.5573,0.5602,0.5657,0.5687,0.5732,0.575,0.5763,0.5808,0.5823,0.589,0.5889,0.5933,0.6017,0.6049,0.6076,0.616,0.6158,0.6175,0.6213,0.6255,0.6264,0.6272,0.6303,0.6313,0.6182,0.6182,0.6182,0,0.56,0.5673,0.5686,0.574,0.5769,0.5767,0.5824,0.5853,0.5911,0.5932,0.5916,0.6021,0.6051,0.6133,0.6153,0.6175,0.6191,0.617,0.6261,0.627,0.6277,0.6307,0.6318,0.6184,0.6184,0.6184,0.6183,0,0.5705,0.5755,0.5795,0.585,0.5884,0.5939,0.5961,0.5993,0.5998,0.6017,0.6086,0.6122,0.6176,0.6196,0.6201,0.6279,0.6269,0.6257,0.623,0.629,0.6318,0.6329,0.6187,0.6186,0.6185,0.6185,0,0,0.5792,0.5853,0.5867,0.5892,0.5941,0.5981,0.6036,0.6088,0.6116,0.6156,0.6203,0.6273,0.6262,0.6293,0.6302,0.6339,0.6403,0.6322,0.6324,0.6337,0.6491,0.6501,0.6513,0.6401,0.6403,0.6405,0.6488,0,0.587,0.5966,0.5979,0.6064,0.6112,0.611,0.6158,0.6193,0.6213,0.6256,0.6277,0.6327,0.6308,0.6327,0.6363,0.6388,0.6435,0.6382,0.6446,0.6448,0.6436,0.6528,0.6538,0.6614,0.6499,0.6501,0.6502,0,0.5975,0.6017,0.6107,0.6149,0.6169,0.6212,0.6261,0.6302,0.6342,0.6353,0.6387,0.6391,0.6448,0.6418,0.6497,0.6461,0.6487,0.6503,0.6506,0.6514,0.6479,0.6539,0.6639,0.6651,0.6519,0.6518,0.6516,0,0.603,0.6109,0.6173,0.6194,0.6245,0.6275,0.6298,0.6336,0.6366,0.6409,0.6429,0.6478,0.6505,0.6543,0.6561,0.6537,0.6639,0.661,0.6651,0.665,0.6673,0.6672,0.678,0.6689,0.6689,0.6688,0.6688,0,0.6117,0.6172,0.6198,0.6238,0.63,0.6314,0.6375,0.6397,0.6431,0.6475,0.6477,0.6518,0.6538,0.6583,0.6597,0.666,0.6672,0.6684,0.6687,0.6684,0.6683,0.6703,0.6698,0.6692,0.6691,0.669,0.669,0,0.619,0.6209,0.6279,0.6321,0.6333,0.6377,0.6413,0.6452,0.647,0.6526,0.6539,0.6568,0.6621,0.6641,0.6706,0.6715,0.6789,0.6788,0.6775,0.6776,0.6817,0.6813,0.6942,0.696,0.6856,0.6857,0.6858,0,0.6244,0.6287,0.6333,0.6362,0.6385,0.6433,0.6463,0.6479,0.6511,0.6559,0.6592,0.6644,0.6687,0.6771,0.6799,0.6848,0.6848,0.689,0.6856,0.6852,0.685,0.6847,0.6852,0.6897,0.6898,0.6899,0.69,0,0.6339,0.6347,0.6391,0.6438,0.6475,0.6513,0.655,0.6574,0.6595,0.6631,0.6685,0.6718,0.6783,0.6835,0.6886,0.6909,0.6909,0.691,0.6922,0.692,0.6912,0.6918,0.6794,0.6907,0.6906,0.6906,0.6905,0.6905,0.6406,0.6443,0.6481,0.653,0.656,0.6594,0.6632,0.6655,0.6699,0.6753,0.676,0.6817,0.6856,0.6924,0.6949,0.6995,0.6984,0.7002,0.7006,0.7011,0.7014,0.6903,0.7004,0.7004,0.7004,0.7003,0.7003,0,0.6501,0.6526,0.657,0.6622,0.666,0.6655,0.6695,0.6728,0.6779,0.6815,0.6856,0.6917,0.6968,0.6998,0.7049,0.7079,0.708,0.7092,0.7091,0.7096,0.702,0.7005,0.7091,0.7091,0.7091,0.7091,0.7091,0.7091,0.6556,0.6619,0.6631,0.6709,0.6733,0.6789,0.6813,0.6845,0.6874,0.6942,0.6983,0.7002,0.7036,0.7089,0.7135,0.7143,0.7162,0.7175,0.7182,0.7111,0.7102,0.7093,0.7079,0.7179,0.7179,0.7254,0.7255,0.7255]}]]